Wind_Speed
29 30 30 30 30 29 28 26 25 24 22 21 20 19 19 19 19 19 18 18 18 19 20 22 23 25 26 26 26 26 26 26 26 27 27 29 31 33 35 36 37 38 37 37 36 35 35 33 33 33 33 33 33 32 31 29 28 26 25 25 25 25 26 26 26 28 28 28 28 28 28 29 29 31 34 36 38 38 37 38 38 38 39 39 40 41 43 45
30 31 31 31 31 30 29 28 26 25 24 23 22 21 20 20 20 20 20 20 19 20 21 22 24 24 25 26 26 26 26 26 26 27 28 30 32 34 36 37 38 39 39 39 38 37 36 35 34 34 34 34 35 34 33 32 30 29 28 27 27 28 28 28 28 29 31 31 29 28 28 30 32 32 34 37 39 39 38 37 37 37 39 40 41 42 43 45
32 32 32 32 32 31 30 29 28 27 25 24 23 22 22 21 21 21 21 21 20 21 21 22 23 23 23 24 25 26 26 26 27 28 29 32 34 36 37 38 38 38 39 40 40 40 39 38 37 37 37 37 37 36 36 34 32 31 30 29 30 30 31 30 31 32 32 32 31 30 29 31 34 35 36 38 40 40 38 37 37 38 40 42 43 43 44 46
33 34 34 34 33 33 32 31 29 28 27 26 24 24 23 23 22 22 21 21 21 21 22 22 23 22 22 23 24 25 26 27 28 29 30 33 35 37 38 39 38 38 40 41 42 42 42 41 40 39 39 39 39 38 37 36 34 33 32 31 31 32 33 33 33 34 33 32 31 31 30 32 36 38 38 40 41 41 39 38 38 39 41 43 45 45 46 47
34 35 35 35 35 34 33 32 31 30 29 27 26 25 25 24 23 22 22 21 21 22 22 23 23 22 22 22 24 25 26 28 28 29 31 33 36 38 39 39 39 41 42 42 41 40 39 40 40 40 40 39 39 38 37 36 35 34 34 33 33 34 35 35 34 35 33 32 31 31 32 34 36 40 41 41 42 42 41 40 40 41 43 46 47 47 47 47
36 37 37 37 36 36 35 34 32 31 30 29 28 27 26 26 25 24 22 22 22 22 23 23 23 23 23 23 24 25 26 28 29 29 31 33 36 38 40 40 41 42 43 42 40 38 37 37 38 39 40 39 38 37 35 35 34 35 36 35 35 36 36 36 36 36 34 33 32 33 34 35 37 41 42 42 44 43 43 43 43 44 46 48 49 49 49 49
37 38 38 38 38 37 36 35 34 33 32 31 30 29 28 27 27 25 24 23 23 23 24 25 25 25 24 24 25 26 27 29 30 31 32 34 37 39 41 42 43 43 43 41 38 37 37 37 37 37 38 38 37 35 33 32 32 34 35 36 36 37 38 38 37 37 35 34 33 34 36 36 39 42 42 43 45 44 45 46 46 47 49 51 51 50 51 52
39 40 40 40 39 38 37 36 35 34 33 32 31 30 29 29 28 27 25 24 24 25 25 26 27 27 27 26 27 28 29 30 31 32 33 34 37 40 42 43 44 43 42 40 38 37 36 36 36 36 36 35 34 33 32 31 32 33 34 35 36 37 38 38 38 37 36 35 35 36 37 38 39 39 40 44 46 46 47 48 49 49 50 51 51 51 53 54
40 41 41 41 41 40 39 38 37 36 35 34 33 32 30 29 29 28 27 26 25 26 27 28 28 29 29 29 29 30 30 31 33 33 33 35 37 40 42 43 44 43 41 39 38 37 37 36 34 33 33 33 32 31 31 32 32 32 33 34 35 36 36 38 38 38 37 36 36 37 37 38 38 37 39 44 47 48 49 50 50 50 50 50 51 52 53 53
42 42 42 42 42 41 40 39 38 37 36 35 34 33 32 30 29 29 28 27 26 27 28 29 30 30 31 31 32 32 32 32 34 34 35 36 38 40 41 42 43 42 41 40 38 38 38 38 36 33 32 32 31 30 29 29 30 31 33 34 35 35 35 35 37 37 37 37 37 37 34 34 36 37 40 45 48 49 50 50 50 49 50 51 52 53 53 53
43 44 44 44 43 43 42 40 39 38 37 36 35 34 33 31 31 30 29 28 27 28 29 30 32 31 32 33 33 33 33 33 35 36 37 37 37 39 40 42 42 42 41 40 39 39 38 38 38 35 32 31 31 31 29 28 28 29 30 32 33 34 34 34 35 35 35 35 35 34 34 34 36 38 41 45 47 49 49 50 50 50 52 52 53 56 57 58
45 45 45 45 44 44 43 41 40 39 39 37 36 35 34 33 32 31 30 29 28 28 29 31 33 33 33 34 35 34 34 35 37 38 38 37 37 39 40 41 42 41 40 40 39 39 39 39 38 36 34 31 30 30 30 29 28 28 28 29 30 30 31 31 32 33 33 34 34 35 37 38 38 38 40 44 47 49 50 51 51 53 54 56 58 60 62 63
46 46 46 46 46 45 44 43 41 41 40 38 37 36 35 33 33 32 32 31 29 29 30 32 34 35 35 35 36 35 35 36 38 39 39 38 38 39 39 41 42 41 40 40 40 40 39 39 38 37 35 33 31 29 29 29 29 29 28 28 29 30 30 31 33 34 35 37 38 37 38 40 40 39 41 44 47 49 51 54 55 56 57 59 60 61 63 64
47 47 47 47 47 46 45 44 43 42 41 39 38 37 36 34 33 33 33 32 31 30 30 32 35 37 36 36 37 37 36 37 39 39 39 39 39 39 40 41 42 41 40 40 40 40 40 39 38 38 37 35 33 31 30 30 30 30 30 30 30 32 33 35 37 39 39 41 41 40 40 41 42 42 44 46 48 51 54 56 57 59 59 61 62 62 64 66
47 48 48 48 48 47 46 45 43 42 41 40 38 38 37 35 34 34 34 34 34 32 31 32 35 38 38 38 38 38 38 38 39 39 40 40 40 40 40 42 43 41 40 40 40 40 40 39 38 38 38 37 35 33 32 31 31 31 33 33 33 33 33 34 36 39 41 42 43 43 43 43 43 44 47 49 51 53 55 57 60 61 62 63 64 64 65 67
48 48 48 48 48 48 47 46 44 43 42 41 39 38 38 37 35 35 35 35 35 34 33 34 36 38 40 40 38 38 39 38 39 40 41 41 40 40 41 43 43 42 40 40 40 40 39 39 38 37 37 37 36 36 36 35 34 33 34 36 36 36 35 35 35 38 41 42 44 45 44 44 45 45 47 50 52 54 57 61 63 64 66 66 65 65 66 68
48 49 48 48 48 48 48 46 45 44 43 42 41 39 38 38 36 36 36 36 36 35 34 35 37 39 41 41 39 39 39 39 40 41 42 41 41 42 43 44 44 41 40 40 40 40 40 39 39 39 38 38 38 38 38 38 37 36 35 36 37 37 38 37 37 38 40 42 44 45 45 45 47 46 48 51 53 56 60 62 63 65 67 67 66 66 67 68
48 49 48 48 48 48 48 47 45 44 44 43 42 40 39 38 37 37 37 37 36 35 36 38 38 40 42 41 40 39 39 39 40 42 42 42 42 43 44 43 43 40 39 41 41 41 41 39 39 40 40 40 39 39 39 38 39 39 39 38 39 40 41 40 39 39 41 42 44 46 46 48 49 49 50 52 55 58 61 62 62 63 64 65 66 67 68 70
48 48 49 48 48 48 47 47 46 45 44 44 43 41 40 39 38 37 39 38 37 36 37 40 40 41 42 41 40 40 40 40 41 42 42 43 44 44 43 42 42 40 39 41 41 41 41 39 39 39 40 40 40 40 40 40 40 41 41 42 41 41 43 44 42 42 44 44 46 47 48 49 50 50 51 54 57 59 60 59 59 61 63 65 67 69 71 73
47 48 49 48 48 47 47 46 46 45 45 44 44 42 41 41 39 38 40 40 38 37 38 41 43 43 42 42 42 41 41 41 42 42 42 44 45 45 43 41 41 41 40 40 41 41 40 38 38 38 39 40 40 40 40 41 42 43 43 44 43 42 43 44 44 44 46 47 48 49 48 49 51 52 54 56 58 58 59 59 60 64 67 68 70 72 74 76
47 48 48 49 48 48 47 46 46 45 45 45 45 44 42 41 40 40 41 42 40 39 41 42 43 45 44 43 43 42 42 43 42 42 43 46 46 45 43 41 41 42 42 41 40 41 41 38 38 38 39 40 40 40 40 41 42 43 44 44 44 43 42 43 45 46 47 48 49 49 48 50 53 54 55 56 56 57 59 61 64 68 71 72 74 75 76 78
47 47 48 48 48 48 47 47 46 46 45 46 46 45 44 42 41 41 42 44 44 42 43 45 44 45 45 43 43 43 43 44 44 44 45 47 47 45 43 42 42 42 43 43 42 43 42 40 39 40 40 41 40 39 39 40 42 43 43 44 45 44 44 46 47 48 49 50 50 49 48 49 53 55 57 57 57 59 62 64 67 71 73 75 77 78 79 81
47 47 48 48 48 48 47 47 47 46 46 47 47 47 45 44 43 42 42 44 46 47 47 48 47 47 46 44 44 44 44 45 45 46 47 49 48 46 44 43 43 42 42 43 43 44 43 42 41 41 42 41 40 39 38 39 42 43 44 44 45 46 46 47 48 48 49 51 50 48 47 50 54 57 60 61 61 64 67 69 71 73 75 76 78 79 81 83
46 47 47 47 47 47 48 48 47 47 47 47 48 48 47 46 45 44 44 42 45 49 49 50 50 50 48 46 45 45 45 45 46 48 49 50 49 47 46 44 43 43 43 44 44 44 44 43 43 43 44 44 42 41 40 40 42 45 46 46 46 47 47 47 47 47 48 52 53 53 52 53 57 62 65 66 66 67 70 72 73 74 76 78 78 80 82 84
47 47 48 48 47 47 48 48 48 49 49 49 49 49 48 48 46 46 46 44 44 48 50 51 52 52 50 48 47 46 45 45 47 49 51 51 50 49 48 46 44 44 44 44 45 45 45 44 45 46 48 47 46 45 44 44 45 47 49 50 50 50 50 50 50 49 50 53 56 60 59 55 58 63 65 67 67 68 71 73 75 76 78 79 79 80 83 84
47 48 48 48 48 48 49 49 50 50 50 51 51 50 50 50 49 48 48 46 45 48 50 51 53 52 50 49 48 47 45 47 49 50 51 51 51 51 50 47 45 45 45 45 45 46 46 46 47 48 49 50 49 48 48 48 48 49 51 52 53 53 53 55 56 55 55 56 59 66 64 57 55 59 63 66 68 70 73 74 75 77 79 79 80 82 85 86
49 49 49 49 49 50 50 51 52 52 52 53 52 52 52 51 51 50 49 46 43 46 50 51 52 52 50 50 49 48 47 49 51 51 52 52 52 52 50 49 48 46 46 45 45 46 45 46 48 48 49 51 51 51 51 51 51 51 52 54 55 56 56 58 59 60 60 59 60 66 66 59 55 58 65 70 71 72 74 75 76 79 81 81 82 85 87 89
51 50 51 51 51 52 52 53 54 54 54 54 54 54 53 52 51 50 49 45 41 44 49 50 51 51 50 50 49 49 49 51 52 52 52 52 53 53 51 50 49 48 47 45 45 47 45 45 47 47 48 50 51 53 53 53 53 53 54 55 56 57 57 58 58 59 60 58 58 63 65 62 58 62 70 72 72 74 75 76 78 81 82 83 84 86 88 90
52 52 53 53 53 53 54 54 55 56 55 55 55 54 53 53 52 51 50 46 43 46 49 50 51 50 51 51 50 50 51 53 53 52 52 52 53 53 51 51 51 50 50 48 47 47 46 45 46 46 48 50 52 54 54 55 56 56 56 56 55 56 57 59 59 59 58 55 58 63 65 66 64 66 71 72 73 76 78 79 81 82 83 84 85 88 89 90
54 54 54 55 55 55 55 56 56 56 56 56 55 55 54 54 53 52 50 48 48 49 49 50 51 50 51 51 51 52 54 54 54 53 52 52 53 53 52 53 53 52 52 50 48 47 47 46 47 48 49 51 54 55 57 59 60 61 61 60 59 60 62 62 62 62 60 56 59 63 67 70 68 67 72 74 76 80 81 82 83 83 84 85 87 89 90 91
56 56 56 56 57 57 57 58 57 57 58 57 57 56 55 55 54 52 50 50 51 50 49 51 51 51 51 51 52 54 55 54 54 53 52 52 53 55 55 55 55 53 53 53 51 48 48 49 50 52 53 55 57 58 60 62 64 66 67 66 65 66 68 67 66 66 63 58 59 64 68 70 69 69 73 76 79 82 83 83 84 85 86 87 88 90 92 93
57 58 59 59 59 59 60 60 60 60 60 59 58 57 55 55 53 51 51 53 53 51 51 53 52 51 52 52 53 55 55 55 55 54 53 54 54 56 58 59 59 57 54 54 53 50 50 53 56 57 58 61 62 61 63 66 68 70 70 71 71 72 72 71 70 69 65 62 64 68 69 68 67 71 75 77 81 83 83 84 85 87 89 90 90 92 94 96
59 59 60 60 60 61 62 62 62 61 61 60 58 56 55 54 51 50 52 55 55 53 53 54 54 54 54 53 55 56 56 57 56 55 55 55 55 57 59 62 64 63 59 56 54 51 51 54 59 61 62 64 65 66 67 69 72 73 73 74 75 77 77 74 73 73 69 67 68 69 69 67 69 73 76 80 84 85 85 87 88 90 91 91 92 94 97 99
61 62 61 61 62 62 62 62 62 61 61 60 58 56 55 53 50 51 54 56 57 55 54 56 56 56 55 55 56 58 59 58 57 58 56 56 56 57 60 64 66 67 64 60 56 53 53 56 61 63 64 67 68 69 71 73 75 75 75 76 76 78 80 78 77 76 72 69 68 69 69 70 74 78 79 83 87 89 89 90 91 93 93 94 95 98 100 101
64 64 63 63 64 64 64 64 63 63 63 61 60 58 55 52 51 54 56 57 58 57 56 57 57 56 56 57 58 60 62 60 59 59 58 58 57 57 61 66 67 69 69 65 61 58 57 59 63 66 67 68 70 72 74 76 78 78 77 78 77 79 82 81 80 79 77 72 67 68 71 75 79 80 82 86 89 91 92 92 94 95 95 96 99 102 103 103
67 66 66 66 67 68 68 67 66 66 65 64 63 60 56 53 55 59 59 60 61 60 59 59 58 58 58 59 60 62 65 63 61 60 59 58 58 59 63 67 69 71 72 70 67 65 63 62 64 68 69 70 72 74 76 78 80 81 81 81 80 80 83 84 82 80 81 77 69 69 75 78 81 82 84 89 91 91 92 94 95 95 96 99 103 105 106 105
71 69 68 68 70 71 71 70 70 69 68 68 66 63 59 56 58 62 64 63 63 63 63 63 62 62 62 61 62 65 68 66 63 62 60 59 59 60 65 69 70 73 74 73 71 71 70 66 65 69 71 72 75 76 78 80 82 83 84 83 82 82 83 84 83 81 81 81 76 74 77 79 82 84 86 90 92 92 93 95 95 96 98 102 106 108 108 108
75 73 71 71 74 75 74 73 73 72 72 71 68 65 63 61 62 66 68 66 66 66 67 67 67 67 66 65 66 68 70 68 65 64 63 63 63 64 68 70 72 75 76 76 74 75 76 71 67 70 73 74 77 79 81 82 84 85 86 85 84 85 84 83 84 83 84 87 84 79 77 79 82 85 88 92 93 94 96 97 97 97 100 105 109 111 111 111
78 76 74 75 79 80 78 77 76 76 75 72 69 68 67 66 67 69 70 70 70 70 70 70 71 71 69 69 71 72 72 70 67 67 67 67 69 70 70 71 73 77 79 78 78 78 79 77 71 71 74 77 79 81 83 84 86 87 87 85 85 86 86 83 82 85 88 91 89 84 83 81 81 84 90 94 94 95 98 98 98 99 103 108 111 112 113 114
80 79 76 77 83 84 82 81 79 77 76 73 71 71 71 70 70 71 73 74 74 74 73 74 74 73 72 73 74 75 74 72 70 72 72 72 74 73 71 72 75 79 80 80 80 81 82 82 77 74 77 79 80 83 85 86 88 88 87 86 87 87 86 83 81 84 90 93 91 91 90 83 83 89 93 94 95 97 99 99 99 102 106 110 112 114 115 117
84 82 77 79 86 87 86 84 80 79 77 74 74 74 74 73 73 74 76 77 77 76 76 77 76 76 76 76 78 78 77 75 74 75 76 77 79 76 73 75 77 81 82 81 82 84 85 85 82 79 80 81 82 85 87 88 88 88 86 86 87 87 86 86 83 83 90 93 91 95 92 84 87 95 95 95 98 101 101 100 103 106 110 112 115 117 119 120
86 83 80 83 88 89 89 86 81 80 78 76 77 78 78 78 77 77 78 80 80 79 79 79 78 78 79 80 82 82 81 80 78 80 82 81 80 78 77 79 81 83 84 84 84 86 88 88 86 84 83 83 84 86 88 89 89 88 86 86 87 86 86 88 86 85 89 90 91 97 95 88 91 97 96 98 103 104 103 103 107 110 112 115 118 119 121 122
86 84 83 85 88 90 90 86 82 82 80 80 81 82 81 81 80 80 81 82 82 82 81 80 79 81 82 84 85 85 85 84 83 84 86 83 80 80 81 83 84 85 86 86 87 88 90 90 89 87 85 84 85 87 89 91 91 89 87 88 88 87 87 88 89 91 91 88 93 100 97 92 95 98 98 104 107 105 105 107 110 113 114 116 119 121 122 124
86 85 83 82 85 88 88 85 84 85 84 85 85 84 84 84 83 82 83 84 84 83 82 80 81 83 84 86 87 87 87 88 87 88 87 85 83 84 86 87 87 87 88 89 90 91 91 90 89 89 88 86 85 87 90 91 92 91 90 89 89 89 90 91 93 96 93 91 97 102 97 93 99 102 103 108 109 106 107 110 113 115 116 118 120 122 124 125
88 85 81 79 81 83 82 82 85 86 85 86 87 85 85 84 82 82 83 84 83 83 83 82 83 85 86 87 88 88 88 89 90 89 87 86 87 88 90 91 90 89 90 91 91 91 91 89 89 91 93 90 88 90 92 93 94 94 93 92 92 92 93 95 97 97 96 97 98 97 97 98 102 106 109 110 110 109 111 114 116 117 118 120 122 124 124 125
90 86 81 79 81 81 80 81 84 83 83 85 86 83 81 79 78 79 81 81 80 82 83 83 84 85 86 87 88 88 87 89 91 89 87 88 90 90 91 91 90 90 90 91 92 92 91 89 88 91 93 91 91 94 97 97 98 97 96 96 95 95 96 99 100 99 101 103 96 93 100 104 104 108 113 113 113 114 116 118 118 119 120 122 124 125 125 125
92 87 83 83 85 84 81 80 81 81 83 86 85 80 77 75 75 76 77 77 78 81 82 81 82 83 84 86 88 87 86 88 90 88 88 90 91 91 90 89 89 89 90 91 92 93 93 90 89 91 92 91 93 97 99 101 101 99 99 98 97 99 101 103 104 103 105 106 98 95 104 107 105 111 117 117 117 119 120 121 121 121 123 125 126 126 126 128
93 89 87 89 90 87 84 83 84 85 85 86 83 78 75 74 75 76 77 79 82 82 83 82 81 82 84 86 89 88 86 87 89 88 90 92 92 90 88 87 87 88 89 91 91 93 94 92 90 93 94 92 94 97 100 102 103 101 101 101 101 103 105 106 106 106 107 107 104 103 107 107 108 115 119 120 121 123 123 123 124 125 126 127 128 128 129 132
95 93 92 93 94 93 91 90 90 89 87 86 85 80 77 77 77 78 81 85 86 85 86 84 81 82 86 87 89 88 85 87 91 90 91 92 91 88 86 85 86 87 89 90 90 93 95 93 93 95 96 94 95 99 102 103 105 104 102 103 105 108 109 108 108 108 109 110 109 110 109 107 110 118 121 122 124 125 124 125 126 127 128 129 131 131 133 136
97 97 97 100 100 98 96 94 94 92 89 90 87 81 79 82 81 83 88 89 86 86 87 85 82 85 89 89 89 86 85 90 94 92 91 93 90 88 87 86 87 88 89 90 91 94 96 96 95 97 99 97 97 101 104 105 107 105 103 106 111 112 111 111 111 111 112 113 113 112 110 108 113 120 122 124 126 126 126 126 127 129 130 131 132 134 137 139
101 103 104 106 105 102 100 99 98 97 94 91 86 84 86 87 85 89 94 90 86 87 89 88 87 90 93 91 88 86 87 94 96 92 91 93 92 91 90 89 90 91 92 92 94 96 98 98 98 99 101 100 100 103 105 107 108 105 103 109 115 115 115 115 114 114 115 117 116 114 112 113 117 121 123 125 127 127 127 128 129 131 132 133 134 137 139 141
105 108 109 112 111 107 105 103 102 101 95 89 89 91 91 90 90 95 97 92 89 90 91 91 93 94 94 91 88 89 94 98 97 94 93 93 93 94 94 93 93 94 94 96 97 98 99 99 100 102 105 106 104 105 107 109 108 105 106 111 116 117 118 118 116 115 117 120 119 116 116 119 123 124 125 127 128 129 129 129 131 133 134 135 137 139 141 142
Wind_Direction
219 218 219 219 219 220 221 223 226 231 236 240 242 243 245 248 250 252 256 262 268 276 284 290 295 299 303 307 310 314 316 320 323 326 328 330 330 330 331 330 331 331 332 334 333 332 330 327 325 324 325 325 325 326 323 314 306 303 301 299 299 299 301 303 303 303 305 307 308 311 314 315 317 320 321 322 321 321 323 324 325 327 329 331 333 334 334 335
220 220 220 219 220 221 222 224 227 230 234 239 242 244 245 248 251 255 258 263 269 276 282 288 292 296 300 304 307 311 314 318 322 325 328 329 329 330 329 330 331 331 332 332 331 330 328 326 322 320 319 319 319 320 320 316 308 299 296 295 294 294 297 299 298 298 301 304 307 309 312 314 317 320 322 321 320 320 323 324 325 326 327 329 330 332 333 332
221 221 221 221 221 222 223 225 227 230 233 237 241 244 246 248 251 255 259 264 270 275 281 286 290 293 298 301 305 309 313 317 321 325 327 328 328 328 328 329 330 329 329 329 328 326 324 321 319 317 315 314 313 314 315 314 311 301 293 292 292 292 295 298 296 297 300 304 308 310 313 316 319 322 322 319 317 319 322 323 325 326 326 327 328 330 331 331
222 223 223 222 222 223 224 226 228 230 233 235 239 244 247 248 251 254 259 265 270 275 280 284 287 291 295 298 303 308 313 317 320 323 325 326 326 326 326 327 327 326 327 326 325 323 321 319 317 314 312 311 310 311 311 311 310 304 295 290 289 291 294 297 298 299 302 306 309 312 316 319 320 320 319 317 315 317 320 323 325 325 325 326 327 328 329 331
223 224 224 224 223 223 225 226 228 230 233 236 238 243 247 250 252 255 259 265 270 274 278 282 285 289 291 295 300 307 312 316 318 320 322 322 323 323 324 325 325 325 325 324 324 323 321 318 317 315 314 312 310 309 309 308 308 305 299 292 287 288 292 296 299 301 304 307 311 314 318 321 319 317 318 316 313 315 320 324 325 325 325 326 327 328 329 330
224 225 225 226 225 225 226 227 228 230 233 236 239 242 247 251 254 256 260 265 270 274 278 282 285 287 290 294 299 305 310 313 315 316 318 319 321 321 323 324 324 324 324 324 324 323 322 320 320 320 319 317 313 310 308 307 306 304 301 297 290 287 290 294 298 301 304 307 310 314 318 320 316 315 317 313 311 317 323 325 325 325 325 326 327 328 329 329
226 226 226 227 227 227 227 228 230 231 233 236 239 242 246 251 255 258 260 264 269 274 278 282 284 287 290 295 299 304 308 311 313 313 314 318 320 320 321 323 324 324 323 323 324 324 323 323 324 324 323 321 317 314 310 307 305 302 300 299 295 291 290 293 296 300 304 306 309 313 316 317 314 316 316 311 312 319 323 323 322 323 324 324 326 327 328 327
227 227 227 228 229 229 229 230 231 232 234 236 239 242 246 250 254 258 260 263 268 273 278 282 285 288 292 296 299 303 307 310 311 311 313 316 319 319 320 322 323 324 322 323 324 324 324 325 326 327 327 325 322 318 314 311 309 306 303 301 300 296 292 292 294 298 302 305 307 310 315 315 314 316 315 312 316 320 321 320 321 323 323 324 326 326 325 324
228 228 229 229 230 230 230 231 232 234 236 238 240 243 246 250 254 258 261 264 268 272 277 281 285 289 292 296 299 303 306 309 311 311 312 315 317 318 319 321 323 322 322 322 323 324 325 326 327 328 329 329 327 324 321 317 316 315 312 309 307 304 298 293 293 296 302 305 307 310 315 315 315 319 316 314 316 318 319 320 321 324 324 325 326 325 324 324
229 229 230 230 231 231 232 232 234 235 237 239 241 243 247 251 254 258 261 264 268 272 277 282 285 289 292 296 299 302 305 309 310 310 311 314 316 317 318 320 322 321 320 321 322 324 326 327 328 329 329 329 329 328 326 323 322 320 318 316 314 312 307 301 297 298 303 307 309 313 317 317 318 319 317 315 316 317 319 321 323 325 325 325 325 325 326 327
230 230 230 231 232 232 234 234 235 236 238 239 242 244 247 251 255 258 261 264 268 273 278 283 286 289 292 295 298 301 305 308 309 309 309 312 314 315 317 319 320 319 319 319 320 322 324 325 326 327 329 329 328 329 329 327 325 324 321 319 318 316 313 310 306 306 309 311 313 316 318 318 318 317 317 317 317 319 321 322 325 326 324 324 324 326 328 329
231 230 231 231 232 234 235 236 237 238 239 241 243 246 249 252 255 259 262 265 268 273 279 284 287 289 292 294 297 300 304 307 307 307 308 310 312 314 315 318 318 317 317 317 318 319 321 322 323 325 327 328 327 327 329 329 329 328 326 325 322 319 318 315 313 313 314 314 314 317 317 318 320 319 320 320 320 321 322 323 324 323 323 324 326 327 328 328
232 231 231 231 232 234 236 237 238 239 241 242 244 248 250 253 257 260 264 266 269 273 279 284 288 289 291 294 297 300 304 305 306 306 307 309 311 313 314 316 316 315 315 315 315 316 317 319 319 320 323 324 324 324 325 327 327 328 328 327 324 321 320 318 316 316 316 315 315 318 320 321 322 323 324 323 322 322 322 322 322 322 323 324 324 325 325 325
234 233 232 232 233 234 236 238 239 240 242 243 246 249 252 254 258 261 265 268 271 274 280 284 287 289 291 294 297 301 303 304 305 305 306 308 311 313 313 313 314 312 312 313 314 314 315 317 317 317 319 320 320 320 320 322 323 323 322 322 320 319 319 318 318 317 316 316 316 319 322 322 323 324 324 324 322 321 321 321 321 322 321 320 322 323 323 324
236 235 234 232 233 234 236 238 239 241 243 245 247 249 253 255 258 262 266 270 273 276 281 284 286 289 292 294 297 301 303 304 305 305 306 309 311 311 311 311 312 310 309 311 313 313 314 314 315 316 316 317 318 317 316 316 316 316 316 315 315 314 314 315 315 314 313 314 315 318 320 320 321 321 322 323 320 319 320 319 319 319 318 319 321 323 323 323
238 237 235 234 234 234 236 238 240 242 243 246 248 250 253 256 259 263 267 270 274 278 281 284 286 289 292 294 298 301 303 304 304 305 306 308 309 309 309 310 310 308 307 309 312 312 312 313 313 313 313 314 316 316 314 312 310 310 309 308 308 308 309 311 312 310 309 311 313 314 316 317 316 316 319 320 318 318 318 319 319 318 318 319 320 322 323 323
240 239 237 236 235 235 237 239 240 242 245 247 249 251 254 257 260 263 266 270 275 279 282 283 285 288 290 293 297 300 301 303 303 304 305 307 308 308 308 308 309 307 306 308 311 312 312 312 311 310 311 312 313 312 312 310 308 307 304 302 302 304 305 307 310 309 309 311 311 311 313 313 311 313 317 317 316 318 319 319 319 318 319 319 319 320 321 322
242 241 240 238 237 237 238 239 241 243 245 248 250 252 255 258 260 263 267 270 274 278 281 283 285 287 289 293 296 298 300 302 302 302 303 305 307 307 307 307 308 307 307 310 312 313 313 312 312 312 313 312 311 309 306 305 304 304 303 302 302 303 304 306 308 309 310 310 308 308 311 311 310 312 315 316 316 317 318 318 318 318 318 318 318 319 320 322
245 244 242 240 239 239 239 241 242 244 246 249 251 254 256 258 260 264 268 270 273 277 281 283 284 285 288 291 294 297 299 301 300 300 301 304 306 307 307 307 307 306 307 310 312 313 313 314 314 314 313 311 309 307 305 303 301 301 301 302 302 303 303 304 306 308 309 310 308 307 310 311 310 311 311 312 312 314 316 317 317 317 317 317 318 319 321 322
247 246 244 242 241 241 241 242 243 245 247 250 252 255 257 259 262 265 268 271 273 276 279 282 284 286 288 291 293 296 298 298 297 297 299 302 305 306 307 306 306 306 307 310 312 312 312 313 312 312 311 310 309 308 306 304 303 302 302 301 301 301 300 301 302 305 307 308 308 307 309 309 309 309 309 310 311 314 316 316 316 317 318 319 319 320 321 321
248 247 246 244 243 243 243 244 245 246 248 251 254 256 258 261 264 267 270 272 274 277 279 281 282 284 287 288 290 293 295 294 294 294 297 301 304 305 305 305 306 307 308 309 311 311 310 311 311 311 311 310 309 308 308 307 306 304 303 302 302 301 300 299 301 303 306 307 307 307 309 309 310 312 313 312 312 314 316 317 317 318 318 318 319 320 321 320
249 248 247 245 244 244 244 245 246 248 250 253 256 258 261 263 265 267 270 273 276 278 279 279 280 282 284 286 288 291 292 293 292 294 298 301 304 305 304 304 305 306 307 309 310 309 309 310 310 311 311 310 308 307 307 307 307 306 305 305 304 303 303 302 303 305 306 307 308 310 312 314 315 316 315 313 312 314 317 319 319 318 317 318 319 320 320 320
250 249 248 246 246 245 246 247 248 250 252 254 257 260 262 265 267 268 270 273 277 280 281 281 282 283 284 286 288 290 291 292 292 295 299 301 303 303 303 303 304 305 306 307 308 307 307 309 310 312 313 311 309 307 307 308 308 308 308 308 307 306 305 305 306 308 309 310 312 313 314 318 318 317 315 314 315 317 319 320 319 318 317 317 318 320 320 320
251 251 249 248 247 247 248 249 250 252 254 256 258 261 264 266 267 269 271 274 277 280 281 282 283 284 285 287 288 290 290 290 291 295 299 300 301 301 300 300 302 303 304 305 305 305 306 308 310 312 313 312 311 309 309 309 310 310 310 309 308 307 306 308 309 311 312 312 313 313 313 319 320 318 317 317 318 319 319 319 318 317 317 317 318 319 319 319
252 252 251 251 250 250 250 251 252 254 256 258 260 262 264 266 268 270 272 274 277 279 280 281 282 283 285 287 288 289 289 288 291 295 298 299 299 299 298 298 299 300 302 303 303 304 305 307 308 311 312 312 312 310 309 310 311 311 310 310 310 309 309 310 311 312 311 312 313 310 311 319 320 317 316 316 317 318 318 317 316 316 317 317 318 318 318 319
253 252 252 252 252 252 252 253 254 256 257 259 261 263 265 267 269 271 273 275 277 278 279 280 281 282 285 286 287 288 287 288 293 296 297 298 298 298 297 296 297 299 300 301 301 302 304 306 307 310 310 311 312 311 310 310 310 311 311 311 311 311 310 310 311 312 311 312 312 309 311 319 320 317 314 314 316 317 316 315 316 316 317 317 318 317 318 320
253 253 253 253 253 253 253 254 256 257 258 260 262 264 266 268 270 272 273 275 277 278 278 278 280 282 284 285 287 287 287 289 293 295 295 296 296 296 296 295 296 298 298 300 300 300 303 305 307 309 310 310 312 312 311 310 309 311 312 311 311 310 309 309 311 312 312 314 313 310 312 318 321 318 313 313 315 315 314 315 316 316 316 318 318 317 318 319
254 254 254 254 254 254 255 255 257 258 259 261 263 265 267 269 271 272 274 276 278 277 277 278 280 281 283 285 286 286 287 290 293 294 294 295 295 295 295 295 296 297 297 298 298 300 304 305 307 308 309 310 311 311 312 310 310 311 310 310 310 310 310 309 311 312 313 315 313 309 312 316 319 317 312 312 314 313 313 316 317 316 317 317 317 317 317 317
255 255 255 255 255 256 256 257 258 259 261 262 263 265 267 269 271 273 274 277 278 276 277 279 280 281 282 283 285 286 288 290 292 292 293 294 294 293 293 294 295 296 296 297 297 300 304 305 305 306 307 309 310 311 311 310 310 310 309 309 311 311 310 309 311 311 312 315 312 310 313 315 317 316 312 314 314 313 314 316 317 316 316 316 315 316 316 316
257 256 256 256 256 257 257 258 259 260 261 262 264 265 267 269 271 273 276 278 277 275 276 277 278 279 280 282 285 287 288 290 291 291 291 292 292 292 292 293 294 294 296 296 297 300 303 303 303 304 306 308 310 310 310 310 311 311 311 311 311 311 310 311 313 312 313 316 314 313 314 315 317 316 313 314 314 312 314 315 315 315 315 314 314 315 315 316
258 258 258 258 258 258 259 259 260 261 262 263 265 267 269 271 273 276 279 278 276 276 277 276 277 278 279 282 285 287 288 289 289 289 290 291 291 291 292 292 292 293 294 295 296 300 302 302 302 301 304 307 309 310 311 312 312 312 312 312 311 311 311 314 314 312 314 315 313 313 313 313 316 315 313 314 312 312 313 313 313 313 314 314 315 315 316 317
258 259 260 260 260 261 261 261 262 263 264 265 267 269 271 272 276 280 280 277 276 276 277 277 278 279 280 283 285 286 287 288 287 288 288 289 290 290 291 292 291 292 293 293 295 299 300 301 300 300 303 306 308 309 310 312 312 311 312 312 311 310 310 312 312 311 312 312 312 312 311 313 315 314 314 314 312 311 312 312 312 313 314 315 316 316 317 319
258 259 259 260 261 262 263 263 264 265 266 267 268 269 271 273 277 280 279 278 278 277 277 278 279 279 281 282 284 285 285 285 285 285 286 287 288 289 290 290 291 292 293 293 294 297 298 299 299 300 303 305 307 309 310 311 311 310 310 311 311 310 309 310 310 310 311 310 311 312 311 314 315 314 315 313 312 312 312 313 314 315 317 317 317 318 318 319
258 259 260 261 261 262 263 263 264 265 265 266 267 268 270 274 277 278 277 277 278 279 278 278 278 279 280 282 282 283 283 283 283 284 284 285 286 288 289 289 290 291 292 293 294 295 297 299 299 300 303 305 306 307 308 309 309 308 309 309 309 309 310 310 310 310 310 310 312 312 313 315 315 314 315 313 313 313 314 315 317 318 319 319 319 319 319 319
258 259 260 261 262 262 262 262 263 263 264 264 265 266 270 274 275 274 274 276 277 277 277 277 278 279 279 280 281 282 282 281 281 282 283 284 285 286 287 287 288 290 291 293 294 296 297 299 300 302 303 304 305 306 306 306 306 307 307 307 307 308 310 310 310 311 311 310 311 312 313 314 314 314 315 313 313 313 315 317 317 318 320 320 320 320 320 320
257 258 259 261 262 262 262 262 263 263 263 263 264 265 270 273 274 273 273 273 274 275 276 277 278 278 278 278 279 280 280 280 280 281 282 283 284 285 286 286 288 289 290 292 294 296 297 298 300 301 302 303 303 304 304 304 304 305 306 307 307 308 309 309 310 312 311 310 312 313 312 313 313 313 314 312 311 313 316 317 316 318 321 321 321 321 320 321
255 256 257 259 261 261 261 261 262 262 263 263 264 266 269 271 273 274 273 272 273 275 275 276 277 277 277 277 277 278 279 280 280 280 282 283 283 284 284 285 286 287 289 291 293 295 294 296 300 301 301 302 303 303 302 302 303 304 306 306 307 307 308 308 309 311 310 309 310 312 312 313 313 314 313 311 311 314 315 315 316 319 321 321 321 321 321 322
256 256 256 258 259 259 259 259 260 261 261 263 265 266 267 269 271 272 272 272 273 274 275 277 277 277 277 278 278 278 279 279 280 281 281 282 283 283 283 284 285 286 288 290 292 293 293 295 299 300 300 301 302 302 301 301 302 303 304 305 306 307 306 307 308 309 308 308 309 312 313 313 315 316 312 310 312 314 313 314 317 320 320 320 320 320 321 323
257 257 257 258 259 259 258 258 259 260 262 265 267 266 267 268 270 271 273 274 274 275 276 277 277 278 279 279 279 279 278 279 280 281 281 282 283 283 284 285 286 286 287 289 291 292 292 294 298 299 299 300 300 300 300 300 301 302 303 304 305 305 305 306 307 308 308 308 310 312 312 314 317 315 311 311 313 313 312 315 318 319 319 319 319 320 322 323
258 258 257 259 260 261 260 259 259 261 264 266 267 267 267 269 270 272 274 275 275 276 277 277 277 279 279 279 279 279 279 279 281 281 282 283 282 282 283 285 286 286 287 289 290 291 292 294 297 298 298 298 299 298 299 300 301 302 303 304 304 304 304 305 307 308 308 308 312 312 311 317 319 312 310 313 313 312 313 316 318 319 319 319 319 321 323 324
257 257 257 258 260 261 261 261 262 263 265 266 267 267 268 268 269 271 273 275 275 276 276 277 277 278 279 279 279 279 279 280 281 282 282 282 282 283 284 285 285 286 287 288 289 291 292 294 297 298 298 298 298 298 299 299 300 300 302 303 303 303 305 306 307 308 307 309 313 311 312 320 318 311 313 315 313 313 315 318 319 319 319 320 321 322 324 325
257 257 257 257 259 261 262 262 263 264 265 266 267 267 267 267 269 270 272 274 275 275 276 276 277 278 278 279 279 280 280 281 281 281 281 281 282 284 285 284 284 285 286 288 289 291 292 294 296 297 297 297 297 297 298 298 298 299 301 301 302 303 305 307 309 308 307 310 312 309 314 321 316 312 316 316 313 314 317 318 319 319 320 321 323 324 325 325
259 258 256 256 258 260 262 263 264 265 265 265 265 266 267 268 269 270 272 273 274 275 275 275 276 277 278 278 279 279 280 281 281 281 281 282 284 285 284 284 284 285 286 288 290 291 292 294 296 296 296 296 296 297 297 297 297 298 300 300 301 304 305 308 310 308 308 312 311 310 317 320 314 315 318 315 313 316 317 318 318 319 320 322 324 325 325 325
261 260 259 260 260 261 263 264 265 264 264 265 265 266 267 268 269 271 272 273 273 274 275 276 276 277 278 278 279 280 281 281 281 281 282 284 284 284 284 283 284 285 287 289 291 291 293 294 295 295 294 294 295 295 295 295 296 297 299 300 302 304 305 308 308 306 309 311 310 314 319 318 315 317 317 313 314 316 318 318 319 319 321 323 324 325 324 324
263 263 263 264 265 266 267 266 265 265 265 265 266 266 267 268 270 271 272 273 274 275 276 276 276 277 278 279 280 281 281 281 281 281 283 284 284 284 283 284 285 287 289 290 291 291 292 293 295 295 294 295 296 296 295 296 297 297 299 301 303 305 307 308 306 306 310 310 312 318 318 315 318 318 314 313 315 317 318 319 319 321 322 323 324 324 324 324
265 266 266 267 268 268 269 268 267 268 268 268 267 267 268 270 271 272 273 274 275 276 276 276 276 277 278 279 279 279 280 281 282 283 284 285 285 284 285 286 288 289 290 290 291 291 291 292 294 294 294 296 297 297 297 298 298 299 301 303 305 307 308 306 305 308 311 310 315 320 315 315 320 316 312 313 316 317 318 319 320 321 322 323 323 323 324 324
267 268 268 268 267 267 268 268 269 270 269 268 269 270 271 273 273 273 274 275 275 275 276 275 276 276 277 277 277 278 279 280 282 284 285 285 285 285 287 288 289 290 290 290 291 291 291 292 293 293 294 295 296 296 297 298 298 300 302 303 306 307 305 304 307 310 309 310 316 318 313 316 319 313 312 315 317 317 318 318 320 321 322 323 323 323 324 324
268 269 268 268 268 268 268 267 267 266 266 267 270 271 272 272 273 274 274 274 274 274 274 274 274 275 275 276 276 277 278 281 283 284 285 284 284 286 287 288 289 289 289 290 290 291 291 292 293 293 294 295 295 296 296 298 299 301 302 305 307 305 303 305 308 309 308 311 316 314 313 317 316 312 314 317 317 316 317 318 320 321 322 323 323 323 324 324
268 269 269 269 268 268 267 265 265 265 267 268 269 270 271 271 272 273 272 271 272 273 273 274 275 275 275 274 275 277 280 283 283 283 283 283 284 286 287 288 288 289 289 289 290 290 291 292 293 293 294 295 296 296 297 298 300 301 304 306 305 302 304 307 308 308 310 313 315 313 314 316 313 312 316 317 316 316 317 318 320 321 321 322 322 323 324 324
269 270 269 268 267 267 267 266 266 267 266 266 269 271 271 270 271 271 270 269 271 272 273 274 275 274 273 274 276 280 283 283 281 281 282 282 284 285 286 287 287 287 288 289 290 290 291 293 294 294 295 296 296 296 298 299 299 302 306 306 302 303 306 307 307 309 311 313 313 313 314 314 312 313 315 316 316 317 318 319 320 321 321 321 322 323 323 323
269 269 269 268 268 268 267 267 266 266 266 268 272 273 271 269 269 269 268 269 271 272 273 274 274 272 273 274 278 281 282 280 280 281 282 283 284 285 285 286 287 287 288 289 290 290 291 293 294 295 295 296 297 297 298 299 300 304 306 304 302 304 305 305 306 309 310 311 312 312 312 312 312 313 314 314 315 317 319 320 320 320 320 321 322 322 322 322
268 268 269 268 268 267 266 267 267 267 268 271 273 272 270 270 269 268 268 270 271 271 272 272 272 271 273 276 278 279 279 279 280 282 283 284 285 285 286 286 286 287 288 289 290 290 292 293 294 294 295 296 297 298 298 298 301 304 304 302 303 304 304 305 307 309 309 310 310 310 311 311 311 312 312 313 315 317 319 320 319 319 319 320 321 321 321 321
Height
10857 10858 10858 10859 10860 10861 10861 10862 10862 10862 10862 10862 10862 10862 10863 10863 10862 10862 10861 10861 10860 10860 10859 10858 10857 10856 10855 10854 10853 10852 10851 10850 10849 10847 10845 10843 10841 10839 10836 10834 10831 10829 10827 10825 10823 10821 10820 10818 10816 10815 10813 10811 10810 10810 10808 10807 10806 10805 10802 10800 10797 10795 10794 10794 10793 10791 10791 10792 10792 10792 10790 10788 10788 10787 10784 10781 10779 10779 10778 10775 10773 10770 10768 10766 10764 10762 10761 10758
10855 10855 10856 10857 10858 10859 10859 10860 10860 10860 10860 10860 10860 10860 10861 10861 10860 10860 10860 10859 10859 10858 10857 10856 10855 10854 10854 10853 10852 10851 10850 10849 10847 10845 10843 10841 10839 10836 10834 10832 10829 10826 10824 10822 10820 10819 10817 10816 10814 10813 10811 10810 10808 10807 10806 10805 10803 10802 10800 10798 10795 10793 10792 10792 10791 10789 10788 10789 10789 10789 10788 10785 10784 10783 10780 10778 10776 10775 10775 10772 10770 10767 10765 10763 10761 10759 10758 10756
10852 10853 10854 10855 10856 10857 10857 10857 10858 10858 10858 10858 10858 10858 10858 10858 10858 10858 10858 10858 10857 10857 10856 10855 10854 10853 10852 10851 10850 10849 10848 10847 10845 10844 10842 10840 10837 10834 10832 10829 10827 10825 10823 10821 10818 10817 10815 10813 10812 10809 10808 10806 10805 10804 10803 10801 10800 10798 10797 10795 10793 10790 10790 10790 10788 10786 10786 10786 10786 10785 10785 10783 10779 10778 10776 10773 10771 10771 10771 10770 10767 10764 10762 10759 10757 10756 10754 10752
10850 10851 10852 10853 10854 10854 10855 10855 10855 10856 10856 10856 10856 10856 10856 10856 10856 10856 10856 10855 10855 10855 10854 10853 10852 10851 10851 10850 10848 10847 10846 10845 10844 10842 10840 10838 10835 10832 10830 10828 10826 10823 10821 10819 10817 10815 10812 10810 10808 10806 10804 10802 10800 10800 10799 10798 10796 10794 10793 10793 10790 10788 10787 10787 10786 10784 10783 10783 10783 10782 10782 10780 10775 10773 10772 10769 10766 10766 10766 10766 10764 10762 10759 10756 10754 10752 10751 10749
10847 10848 10849 10850 10851 10852 10852 10853 10853 10853 10853 10853 10853 10853 10853 10853 10853 10853 10853 10853 10853 10852 10852 10851 10850 10849 10849 10848 10847 10846 10845 10843 10842 10840 10838 10836 10833 10830 10828 10826 10824 10821 10819 10817 10815 10813 10810 10808 10806 10804 10801 10800 10797 10795 10795 10794 10793 10790 10788 10789 10787 10785 10784 10784 10784 10782 10781 10781 10781 10780 10779 10778 10773 10768 10767 10764 10760 10761 10762 10761 10759 10757 10754 10752 10750 10748 10746 10744
10844 10845 10846 10847 10848 10849 10850 10850 10850 10851 10851 10851 10851 10851 10851 10850 10850 10850 10850 10850 10850 10850 10849 10849 10848 10847 10847 10846 10845 10844 10843 10842 10840 10838 10836 10834 10831 10828 10825 10823 10821 10819 10816 10814 10812 10810 10808 10805 10802 10800 10798 10796 10794 10792 10791 10790 10789 10786 10784 10784 10783 10782 10781 10780 10781 10779 10779 10779 10779 10778 10776 10775 10770 10765 10763 10759 10756 10756 10756 10755 10754 10752 10749 10746 10744 10742 10740 10738
10841 10842 10843 10844 10845 10846 10847 10847 10848 10848 10848 10848 10848 10848 10848 10848 10848 10848 10848 10848 10847 10847 10847 10846 10845 10845 10844 10844 10843 10842 10841 10840 10838 10836 10834 10831 10828 10825 10823 10821 10818 10816 10813 10811 10809 10807 10805 10803 10800 10798 10795 10793 10791 10789 10788 10787 10786 10784 10781 10779 10779 10779 10778 10777 10777 10776 10776 10776 10776 10775 10774 10772 10768 10763 10759 10755 10752 10753 10752 10750 10749 10747 10745 10741 10739 10736 10734 10733
10838 10839 10840 10841 10842 10843 10844 10844 10845 10845 10845 10845 10845 10845 10845 10845 10845 10845 10845 10845 10845 10844 10844 10843 10842 10842 10842 10841 10840 10840 10839 10837 10836 10834 10831 10829 10826 10823 10820 10818 10815 10813 10810 10808 10806 10804 10802 10800 10798 10795 10793 10791 10789 10787 10785 10784 10783 10782 10779 10777 10775 10775 10775 10774 10774 10773 10774 10774 10774 10773 10771 10769 10765 10762 10756 10751 10749 10748 10747 10745 10744 10742 10740 10737 10735 10732 10730 10728
10835 10836 10837 10838 10839 10840 10841 10841 10842 10842 10842 10842 10842 10842 10843 10843 10843 10842 10842 10842 10842 10841 10841 10840 10840 10839 10839 10838 10837 10837 10836 10835 10833 10831 10829 10826 10823 10820 10817 10815 10812 10809 10807 10805 10803 10801 10799 10797 10795 10793 10791 10789 10787 10785 10783 10781 10780 10779 10777 10774 10772 10771 10771 10771 10770 10771 10771 10771 10770 10770 10769 10765 10762 10760 10754 10748 10745 10744 10743 10741 10739 10737 10734 10732 10730 10728 10726 10724
10832 10833 10833 10834 10835 10836 10837 10838 10839 10839 10839 10839 10839 10839 10840 10840 10840 10839 10839 10839 10839 10838 10838 10837 10837 10837 10836 10835 10834 10833 10833 10832 10830 10828 10826 10824 10821 10818 10815 10812 10809 10806 10804 10802 10799 10797 10796 10794 10792 10790 10788 10786 10784 10783 10781 10779 10778 10776 10774 10772 10770 10768 10767 10767 10767 10767 10767 10767 10766 10765 10765 10763 10759 10756 10752 10746 10742 10740 10738 10736 10734 10732 10729 10727 10725 10723 10721 10718
10828 10829 10830 10831 10832 10833 10834 10835 10835 10835 10836 10836 10836 10836 10837 10837 10837 10837 10836 10836 10836 10836 10835 10834 10833 10833 10833 10832 10831 10830 10829 10829 10827 10825 10823 10821 10818 10815 10812 10809 10806 10804 10801 10799 10797 10794 10793 10791 10789 10787 10786 10784 10781 10780 10779 10777 10776 10775 10772 10770 10768 10766 10764 10763 10763 10763 10763 10762 10762 10761 10761 10760 10758 10754 10750 10744 10739 10736 10733 10731 10729 10727 10724 10721 10719 10717 10715 10712
10825 10826 10826 10827 10828 10829 10830 10831 10831 10832 10832 10833 10833 10833 10834 10834 10834 10834 10833 10834 10834 10833 10832 10831 10830 10830 10829 10828 10828 10827 10826 10825 10823 10822 10820 10818 10815 10813 10810 10807 10804 10801 10799 10796 10794 10792 10790 10788 10787 10785 10783 10781 10779 10777 10775 10774 10773 10772 10770 10768 10766 10764 10762 10761 10760 10759 10759 10758 10758 10758 10756 10755 10754 10751 10747 10742 10736 10732 10728 10725 10724 10721 10718 10716 10714 10712 10709 10706
10821 10822 10823 10824 10825 10826 10826 10827 10828 10828 10828 10829 10830 10830 10830 10830 10830 10830 10830 10831 10831 10830 10830 10829 10827 10826 10826 10825 10824 10824 10823 10822 10820 10818 10816 10814 10812 10810 10807 10804 10801 10799 10796 10794 10791 10789 10787 10786 10784 10782 10780 10778 10777 10775 10773 10772 10770 10769 10768 10766 10764 10761 10759 10758 10756 10755 10755 10753 10753 10753 10752 10748 10747 10745 10742 10738 10732 10728 10724 10721 10719 10716 10714 10711 10710 10708 10705 10702
10818 10818 10819 10820 10821 10822 10823 10823 10824 10824 10825 10826 10826 10827 10827 10827 10827 10827 10827 10827 10827 10828 10827 10826 10824 10822 10822 10822 10821 10820 10819 10818 10817 10815 10813 10811 10809 10807 10804 10801 10799 10796 10793 10791 10789 10787 10785 10783 10781 10779 10778 10776 10774 10773 10771 10769 10768 10766 10765 10764 10762 10759 10757 10754 10751 10749 10748 10747 10745 10745 10745 10743 10740 10739 10737 10734 10729 10724 10721 10718 10715 10713 10710 10708 10706 10704 10701 10697
10814 10814 10815 10816 10817 10818 10819 10819 10820 10821 10821 10822 10823 10823 10823 10823 10824 10824 10824 10824 10824 10824 10824 10823 10821 10819 10818 10818 10817 10816 10815 10814 10813 10811 10809 10808 10805 10803 10801 10798 10796 10793 10791 10788 10786 10784 10782 10780 10779 10777 10775 10773 10771 10769 10768 10767 10765 10763 10760 10759 10758 10757 10755 10754 10750 10746 10743 10742 10740 10739 10740 10739 10737 10735 10732 10729 10725 10722 10718 10714 10712 10709 10706 10703 10701 10698 10694 10690
10809 10810 10811 10812 10813 10814 10815 10816 10816 10817 10818 10818 10819 10819 10819 10820 10820 10821 10820 10820 10820 10820 10820 10820 10818 10816 10814 10813 10814 10813 10811 10810 10809 10807 10805 10804 10802 10799 10797 10795 10792 10790 10787 10785 10783 10780 10779 10777 10776 10774 10772 10770 10768 10766 10764 10763 10762 10761 10758 10755 10753 10753 10752 10751 10750 10746 10742 10740 10738 10737 10736 10735 10733 10731 10729 10725 10720 10716 10713 10709 10705 10701 10697 10695 10692 10690 10687 10683
10805 10806 10807 10808 10809 10810 10811 10812 10813 10813 10814 10814 10815 10815 10816 10816 10817 10817 10817 10817 10817 10817 10816 10816 10815 10813 10811 10810 10810 10809 10808 10806 10805 10803 10801 10800 10798 10796 10794 10792 10789 10786 10784 10782 10780 10777 10775 10774 10772 10771 10769 10767 10766 10764 10762 10760 10757 10756 10756 10753 10751 10749 10748 10748 10747 10745 10742 10739 10736 10733 10733 10731 10727 10726 10724 10719 10714 10709 10706 10702 10698 10693 10689 10686 10684 10682 10680 10677
10801 10802 10803 10804 10806 10807 10807 10808 10809 10810 10810 10810 10811 10811 10812 10813 10813 10814 10813 10814 10814 10813 10812 10811 10811 10810 10807 10806 10806 10805 10804 10802 10801 10799 10797 10796 10794 10792 10790 10788 10785 10783 10780 10778 10776 10773 10771 10770 10768 10766 10765 10764 10762 10761 10760 10758 10756 10753 10751 10750 10748 10746 10743 10742 10742 10741 10739 10737 10732 10729 10728 10725 10721 10719 10717 10713 10708 10704 10701 10698 10694 10689 10685 10681 10678 10676 10673 10670
10798 10799 10799 10801 10802 10803 10804 10805 10806 10806 10807 10807 10807 10808 10809 10809 10810 10810 10810 10810 10810 10810 10809 10807 10807 10806 10804 10803 10802 10801 10800 10798 10797 10795 10794 10792 10791 10789 10787 10785 10782 10780 10778 10775 10773 10770 10767 10766 10764 10762 10761 10760 10758 10757 10756 10755 10753 10751 10748 10746 10744 10742 10739 10736 10736 10735 10733 10732 10728 10725 10724 10720 10716 10715 10713 10709 10705 10701 10698 10694 10690 10686 10682 10678 10674 10670 10666 10662
10794 10795 10796 10797 10798 10800 10801 10801 10802 10803 10803 10803 10803 10804 10805 10805 10806 10807 10806 10806 10806 10807 10806 10804 10802 10801 10800 10799 10798 10797 10796 10795 10793 10791 10790 10788 10787 10785 10783 10781 10778 10776 10775 10773 10770 10767 10764 10763 10761 10759 10757 10755 10754 10753 10752 10750 10748 10746 10744 10742 10740 10739 10736 10732 10731 10730 10728 10726 10723 10721 10720 10717 10713 10711 10709 10705 10701 10697 10694 10690 10686 10681 10677 10673 10668 10664 10660 10655
10790 10791 10792 10793 10794 10796 10797 10798 10798 10799 10799 10799 10799 10800 10801 10801 10802 10803 10802 10801 10802 10803 10802 10801 10799 10797 10796 10796 10794 10794 10792 10790 10789 10788 10786 10784 10783 10781 10779 10777 10774 10772 10770 10769 10767 10763 10761 10760 10757 10755 10753 10751 10750 10749 10747 10745 10743 10741 10739 10737 10735 10734 10733 10729 10727 10727 10724 10722 10719 10717 10717 10713 10708 10706 10703 10698 10696 10692 10689 10685 10681 10675 10670 10666 10661 10656 10652 10648
10786 10787 10788 10789 10790 10791 10793 10794 10794 10795 10795 10795 10795 10795 10796 10797 10798 10799 10799 10797 10797 10797 10797 10796 10796 10794 10793 10792 10791 10790 10788 10786 10784 10783 10782 10780 10778 10777 10775 10773 10771 10769 10766 10764 10763 10759 10757 10756 10753 10751 10749 10747 10745 10744 10743 10740 10738 10735 10734 10732 10730 10728 10728 10725 10722 10722 10719 10717 10715 10714 10713 10709 10705 10701 10696 10692 10690 10687 10683 10680 10675 10669 10664 10659 10655 10649 10644 10640
10782 10783 10784 10785 10786 10787 10789 10789 10790 10791 10791 10791 10791 10791 10792 10793 10794 10795 10796 10795 10793 10791 10791 10790 10790 10789 10788 10788 10787 10785 10784 10781 10779 10778 10777 10775 10774 10772 10770 10769 10766 10765 10763 10761 10758 10756 10753 10752 10749 10747 10745 10742 10741 10740 10738 10736 10733 10730 10728 10727 10725 10722 10721 10720 10718 10717 10713 10710 10709 10709 10708 10706 10701 10695 10689 10685 10683 10680 10677 10674 10668 10663 10658 10654 10650 10644 10638 10633
10779 10779 10780 10781 10782 10784 10785 10786 10787 10787 10787 10787 10787 10787 10787 10788 10790 10791 10791 10793 10792 10787 10785 10784 10783 10782 10782 10782 10782 10780 10779 10777 10775 10773 10772 10770 10769 10767 10766 10765 10763 10760 10759 10757 10754 10752 10749 10747 10745 10742 10740 10737 10735 10734 10733 10732 10729 10725 10722 10721 10720 10717 10715 10714 10713 10713 10709 10703 10701 10700 10702 10704 10696 10687 10681 10676 10675 10674 10670 10667 10662 10657 10652 10648 10644 10638 10632 10627
10775 10775 10776 10777 10779 10780 10781 10782 10783 10783 10783 10783 10782 10782 10783 10784 10785 10787 10787 10790 10790 10784 10781 10779 10777 10776 10776 10776 10776 10775 10774 10772 10770 10769 10766 10765 10764 10762 10761 10760 10759 10756 10755 10754 10750 10747 10745 10743 10741 10738 10734 10732 10730 10728 10726 10726 10724 10720 10717 10714 10713 10711 10709 10707 10706 10707 10705 10701 10695 10688 10692 10702 10695 10683 10676 10671 10670 10668 10664 10661 10656 10651 10646 10642 10637 10631 10625 10620
10771 10771 10771 10773 10774 10775 10777 10778 10777 10778 10778 10777 10778 10778 10778 10779 10780 10782 10783 10786 10787 10782 10777 10775 10772 10771 10771 10770 10770 10770 10769 10767 10765 10764 10761 10759 10758 10756 10755 10754 10754 10752 10750 10750 10746 10743 10741 10738 10735 10733 10729 10726 10725 10722 10720 10719 10718 10715 10712 10708 10706 10704 10703 10700 10699 10699 10698 10697 10691 10678 10681 10694 10692 10680 10671 10666 10665 10662 10657 10654 10650 10644 10639 10634 10629 10623 10617 10611
10766 10767 10767 10768 10769 10770 10772 10772 10772 10773 10773 10772 10773 10773 10774 10775 10776 10777 10778 10781 10784 10779 10772 10770 10768 10767 10766 10765 10765 10765 10764 10762 10760 10759 10756 10754 10752 10750 10750 10748 10748 10747 10745 10745 10742 10738 10737 10734 10729 10728 10724 10721 10719 10716 10714 10712 10710 10709 10706 10703 10701 10698 10697 10694 10693 10691 10690 10692 10686 10671 10669 10681 10685 10675 10663 10659 10658 10655 10649 10646 10643 10636 10631 10626 10620 10614 10608 10601
10761 10762 10762 10762 10764 10765 10766 10767 10766 10767 10768 10768 10768 10768 10769 10770 10770 10772 10772 10776 10780 10775 10768 10765 10763 10762 10761 10760 10760 10759 10758 10756 10755 10754 10751 10749 10747 10745 10744 10742 10741 10741 10740 10740 10737 10733 10732 10729 10725 10722 10719 10716 10713 10710 10708 10705 10703 10702 10699 10698 10695 10692 10690 10687 10687 10686 10684 10686 10681 10669 10664 10670 10676 10667 10655 10653 10651 10645 10641 10639 10635 10629 10623 10618 10612 10607 10600 10591
10756 10757 10757 10757 10759 10760 10760 10761 10761 10761 10762 10763 10763 10763 10764 10764 10765 10766 10767 10771 10774 10770 10764 10761 10759 10758 10757 10755 10755 10754 10752 10751 10750 10748 10746 10745 10742 10739 10738 10736 10735 10734 10733 10733 10732 10729 10727 10724 10720 10717 10714 10711 10708 10705 10702 10699 10696 10695 10693 10691 10688 10686 10683 10680 10681 10679 10679 10681 10674 10665 10660 10660 10667 10661 10647 10645 10643 10636 10633 10631 10627 10622 10616 10611 10605 10599 10591 10582
10750 10751 10751 10752 10753 10754 10754 10754 10755 10756 10756 10757 10757 10758 10758 10759 10759 10760 10763 10765 10764 10763 10761 10757 10754 10754 10753 10751 10750 10749 10747 10746 10744 10742 10741 10740 10737 10733 10732 10730 10728 10728 10726 10725 10725 10724 10722 10718 10715 10711 10709 10706 10703 10699 10696 10693 10689 10686 10684 10683 10681 10678 10675 10674 10674 10670 10671 10675 10668 10661 10655 10651 10656 10654 10643 10638 10634 10627 10625 10622 10618 10613 10608 10603 10596 10589 10580 10572
10744 10745 10746 10746 10747 10748 10748 10748 10749 10749 10750 10750 10751 10752 10753 10753 10753 10755 10758 10756 10754 10756 10755 10751 10750 10750 10749 10748 10746 10743 10741 10740 10738 10737 10736 10735 10732 10727 10724 10723 10721 10722 10721 10717 10717 10719 10716 10712 10709 10705 10703 10700 10697 10694 10690 10687 10682 10678 10675 10673 10673 10670 10666 10667 10666 10662 10663 10665 10661 10657 10651 10646 10646 10643 10638 10633 10625 10620 10617 10613 10608 10603 10599 10593 10585 10578 10569 10560
10738 10739 10739 10740 10741 10742 10741 10741 10742 10743 10743 10744 10745 10747 10747 10747 10750 10751 10749 10745 10746 10750 10748 10744 10745 10745 10743 10744 10741 10737 10735 10734 10732 10731 10730 10728 10727 10722 10717 10714 10712 10713 10715 10713 10711 10713 10710 10706 10702 10699 10697 10693 10690 10687 10683 10680 10675 10672 10668 10664 10663 10660 10658 10660 10658 10655 10657 10657 10654 10650 10644 10643 10640 10633 10629 10623 10615 10613 10609 10602 10598 10592 10587 10581 10573 10566 10557 10548
10731 10731 10732 10733 10734 10734 10734 10734 10735 10736 10736 10737 10738 10741 10741 10742 10747 10745 10740 10736 10737 10742 10741 10738 10739 10739 10738 10738 10735 10731 10729 10728 10727 10725 10724 10723 10721 10717 10711 10707 10702 10701 10705 10706 10706 10707 10706 10703 10696 10692 10691 10687 10683 10680 10677 10674 10668 10665 10662 10657 10653 10648 10646 10651 10650 10648 10650 10649 10647 10642 10636 10636 10632 10625 10621 10611 10602 10601 10597 10591 10587 10581 10574 10568 10562 10553 10544 10536
10724 10724 10725 10726 10726 10726 10726 10726 10727 10728 10728 10729 10731 10734 10735 10739 10741 10737 10732 10729 10728 10732 10733 10731 10732 10732 10732 10731 10727 10724 10721 10721 10721 10718 10718 10717 10715 10712 10706 10699 10695 10691 10693 10696 10698 10699 10700 10698 10691 10687 10685 10681 10677 10674 10670 10667 10662 10659 10656 10651 10647 10640 10635 10638 10638 10637 10639 10641 10640 10633 10627 10625 10621 10617 10610 10600 10592 10587 10583 10580 10574 10568 10563 10556 10549 10540 10531 10524
10717 10718 10718 10719 10718 10718 10718 10718 10720 10720 10720 10723 10724 10728 10731 10734 10733 10728 10725 10723 10720 10722 10723 10723 10724 10725 10724 10722 10719 10716 10712 10713 10714 10711 10710 10710 10708 10707 10700 10693 10688 10684 10682 10684 10687 10690 10691 10691 10685 10680 10678 10674 10670 10667 10662 10658 10654 10652 10650 10644 10640 10635 10627 10626 10627 10626 10625 10630 10634 10629 10621 10617 10613 10609 10601 10589 10583 10577 10572 10570 10563 10557 10552 10544 10535 10527 10518 10512
10709 10711 10712 10711 10710 10708 10708 10710 10711 10711 10713 10716 10718 10723 10727 10727 10724 10718 10717 10716 10713 10714 10714 10715 10716 10716 10715 10715 10712 10708 10703 10705 10707 10704 10704 10703 10701 10700 10693 10686 10682 10677 10673 10673 10675 10678 10680 10683 10680 10673 10670 10667 10663 10660 10655 10649 10644 10641 10641 10637 10632 10628 10621 10615 10617 10618 10611 10613 10623 10622 10615 10610 10605 10602 10594 10580 10573 10571 10565 10559 10553 10548 10541 10532 10523 10514 10506 10500
10701 10704 10705 10704 10700 10698 10700 10702 10703 10704 10706 10708 10713 10719 10722 10720 10716 10708 10706 10708 10706 10706 10706 10707 10708 10707 10706 10707 10705 10700 10695 10696 10698 10697 10696 10695 10694 10693 10686 10680 10676 10671 10666 10665 10666 10666 10667 10673 10675 10667 10662 10660 10655 10651 10646 10641 10635 10632 10630 10627 10623 10620 10616 10607 10606 10608 10602 10599 10608 10614 10609 10603 10596 10590 10583 10571 10564 10563 10558 10549 10545 10540 10531 10521 10511 10502 10496 10489
10693 10697 10699 10697 10690 10687 10691 10693 10694 10695 10698 10702 10709 10713 10714 10713 10708 10699 10696 10699 10699 10699 10699 10699 10699 10697 10698 10699 10695 10691 10688 10688 10690 10689 10688 10687 10686 10684 10679 10674 10670 10664 10659 10657 10658 10656 10653 10660 10669 10663 10655 10652 10648 10642 10637 10632 10627 10624 10621 10618 10614 10609 10606 10603 10597 10595 10590 10585 10592 10601 10600 10597 10591 10579 10565 10559 10557 10552 10546 10540 10537 10531 10522 10511 10502 10493 10486 10478
10686 10690 10694 10690 10679 10676 10682 10685 10686 10688 10692 10699 10704 10705 10705 10704 10700 10692 10689 10690 10690 10691 10692 10691 10689 10689 10691 10690 10685 10682 10680 10680 10682 10680 10679 10679 10676 10674 10671 10668 10663 10656 10652 10649 10648 10647 10642 10645 10658 10659 10649 10645 10641 10634 10629 10624 10618 10614 10611 10609 10606 10599 10595 10597 10593 10585 10576 10572 10576 10582 10585 10589 10586 10570 10552 10547 10549 10542 10533 10531 10528 10521 10513 10503 10493 10486 10477 10468
10677 10680 10688 10685 10669 10666 10672 10675 10679 10684 10688 10694 10696 10697 10697 10695 10692 10687 10683 10682 10682 10683 10684 10683 10681 10681 10682 10680 10676 10673 10671 10673 10674 10670 10670 10669 10664 10664 10665 10661 10655 10647 10644 10643 10639 10637 10632 10632 10644 10649 10642 10638 10633 10625 10621 10616 10609 10605 10603 10601 10596 10590 10586 10587 10589 10582 10564 10559 10563 10561 10567 10579 10572 10556 10545 10540 10537 10530 10523 10522 10518 10509 10502 10492 10483 10475 10465 10455
10665 10670 10681 10677 10660 10656 10660 10666 10676 10680 10682 10687 10689 10687 10686 10685 10685 10682 10676 10672 10673 10676 10675 10673 10674 10673 10672 10669 10666 10663 10662 10665 10666 10661 10660 10658 10653 10655 10657 10653 10647 10639 10636 10635 10632 10628 10623 10623 10630 10635 10632 10628 10624 10617 10611 10607 10601 10597 10596 10594 10586 10582 10577 10573 10580 10579 10559 10552 10554 10543 10552 10570 10556 10536 10535 10531 10521 10516 10514 10511 10505 10497 10488 10478 10470 10461 10451 10442
10654 10662 10671 10665 10653 10650 10651 10659 10670 10673 10675 10680 10678 10674 10674 10676 10677 10675 10670 10665 10665 10666 10665 10665 10666 10665 10663 10659 10655 10654 10653 10654 10656 10651 10647 10647 10647 10647 10647 10642 10636 10631 10627 10626 10625 10620 10615 10614 10618 10621 10621 10617 10612 10608 10602 10596 10592 10589 10589 10585 10578 10575 10571 10563 10565 10565 10556 10553 10545 10530 10542 10558 10542 10526 10526 10517 10506 10504 10503 10500 10492 10483 10476 10466 10457 10449 10439 10430
10647 10652 10656 10654 10649 10644 10644 10654 10662 10663 10666 10668 10664 10663 10665 10666 10667 10666 10663 10659 10657 10657 10655 10657 10658 10655 10653 10649 10644 10645 10643 10642 10645 10640 10633 10638 10641 10638 10635 10631 10626 10623 10619 10617 10616 10612 10606 10605 10606 10607 10608 10607 10603 10597 10591 10584 10581 10581 10581 10575 10570 10567 10563 10558 10553 10546 10547 10550 10534 10521 10533 10537 10522 10519 10518 10502 10494 10496 10492 10488 10480 10471 10463 10454 10445 10437 10428 10419
10637 10639 10645 10648 10644 10639 10641 10649 10652 10651 10654 10654 10652 10656 10657 10655 10657 10658 10654 10650 10649 10648 10648 10650 10649 10644 10642 10638 10635 10635 10632 10628 10630 10629 10626 10629 10632 10628 10623 10619 10617 10616 10612 10609 10605 10602 10598 10597 10595 10592 10591 10595 10596 10588 10579 10575 10571 10570 10570 10566 10563 10560 10553 10550 10543 10533 10536 10540 10526 10516 10523 10519 10506 10505 10501 10487 10483 10486 10482 10475 10467 10459 10451 10442 10434 10426 10418 10409
10624 10630 10639 10642 10638 10634 10638 10643 10639 10638 10643 10642 10641 10646 10647 10646 10649 10649 10644 10642 10642 10641 10640 10641 10638 10634 10632 10629 10625 10625 10622 10616 10614 10619 10622 10620 10618 10616 10611 10607 10608 10607 10604 10599 10594 10591 10590 10589 10587 10579 10572 10576 10581 10574 10566 10563 10560 10557 10558 10556 10552 10549 10544 10536 10528 10524 10524 10524 10523 10516 10505 10503 10501 10487 10478 10475 10472 10472 10468 10461 10454 10446 10438 10431 10423 10415 10407 10398
10612 10621 10632 10634 10630 10627 10631 10632 10628 10629 10634 10630 10628 10635 10638 10639 10642 10640 10635 10635 10636 10632 10629 10630 10629 10625 10624 10620 10614 10612 10612 10606 10602 10608 10614 10609 10603 10602 10600 10599 10599 10596 10593 10588 10583 10580 10579 10581 10581 10572 10563 10564 10563 10555 10549 10547 10544 10544 10544 10543 10541 10537 10532 10521 10514 10517 10510 10502 10519 10519 10490 10490 10498 10474 10456 10462 10463 10457 10453 10447 10442 10435 10427 10420 10412 10404 10395 10386
10602 10613 10623 10622 10616 10616 10622 10623 10620 10621 10620 10614 10616 10628 10632 10632 10633 10630 10628 10627 10624 10619 10618 10620 10620 10616 10613 10609 10601 10601 10605 10599 10595 10600 10601 10594 10590 10588 10590 10591 10589 10586 10582 10576 10573 10569 10565 10570 10572 10562 10556 10559 10553 10543 10537 10531 10530 10533 10531 10530 10532 10526 10517 10508 10504 10507 10497 10486 10507 10512 10484 10481 10487 10462 10445 10449 10448 10443 10438 10433 10430 10423 10414 10407 10399 10391 10383 10373
10594 10604 10610 10606 10602 10606 10612 10613 10607 10604 10604 10604 10610 10620 10624 10624 10623 10621 10619 10616 10610 10608 10607 10607 10610 10607 10602 10598 10590 10591 10598 10593 10588 10592 10587 10579 10578 10579 10581 10583 10579 10576 10572 10566 10564 10558 10553 10557 10561 10551 10546 10550 10545 10535 10529 10522 10519 10523 10522 10521 10522 10512 10501 10498 10497 10495 10485 10479 10492 10494 10480 10478 10469 10446 10441 10441 10433 10428 10425 10419 10414 10407 10400 10393 10385 10379 10371 10361
10587 10593 10596 10592 10589 10591 10595 10597 10592 10591 10598 10598 10600 10611 10616 10614 10613 10612 10607 10600 10598 10600 10595 10595 10603 10599 10589 10587 10581 10583 10593 10586 10576 10580 10575 10565 10568 10572 10573 10574 10570 10566 10562 10557 10554 10548 10542 10545 10548 10539 10534 10539 10537 10524 10519 10515 10510 10513 10517 10514 10505 10496 10491 10489 10486 10481 10475 10473 10477 10473 10471 10474 10456 10434 10434 10433 10421 10417 10414 10408 10402 10395 10388 10381 10374 10368 10359 10350
10579 10580 10579 10571 10570 10577 10581 10582 10581 10583 10588 10586 10589 10606 10608 10600 10602 10599 10588 10586 10591 10592 10585 10586 10594 10585 10573 10574 10575 10581 10588 10574 10560 10567 10565 10556 10559 10564 10563 10564 10561 10555 10552 10549 10545 10538 10531 10532 10534 10526 10519 10525 10526 10514 10509 10506 10498 10504 10515 10503 10484 10481 10483 10478 10472 10470 10465 10462 10464 10459 10457 10460 10448 10430 10426 10421 10411 10406 10403 10397 10392 10385 10377 10371 10364 10357 10348 10339
10566 10562 10559 10550 10554 10566 10566 10565 10569 10569 10575 10582 10589 10596 10591 10586 10592 10582 10568 10576 10585 10581 10577 10578 10579 10569 10561 10566 10573 10577 10574 10556 10546 10556 10556 10548 10551 10553 10551 10553 10550 10544 10541 10539 10533 10528 10521 10518 10519 10513 10504 10508 10512 10505 10499 10493 10489 10500 10507 10488 10470 10469 10470 10464 10462 10462 10454 10448 10449 10448 10443 10442 10436 10425 10419 10411 10402 10397 10393 10387 10381 10373 10366 10360 10354 10346 10338 10329
10549 10543 10543 10533 10533 10547 10551 10552 10555 10555 10568 10583 10582 10576 10574 10577 10577 10563 10555 10568 10575 10568 10566 10565 10560 10556 10555 10563 10570 10566 10554 10541 10539 10545 10545 10541 10542 10542 10540 10541 10538 10534 10532 10527 10520 10517 10513 10508 10505 10499 10490 10491 10497 10494 10486 10482 10485 10495 10494 10476 10463 10459 10454 10451 10455 10455 10445 10436 10435 10436 10432 10427 10421 10415 10409 10401 10393 10388 10384 10378 10370 10362 10356 10351 10344 10336 10328 10320